Location: Lake Crest
(37.6062°N, 88.9176°W)
Time: 10:29:26
(UTC+00:00)

Uosat 12 SS-18 rocket - Pass Details

Date: 15 December 2019
Orbit: 595 x 1389 km, 64.6° (Epoch: 23 January)

Event Time Altitude Azimuth Distance (km) Brightness Sun altitude
Rises 00:40:22 0° 329° (NNW) 3,054 7.9 -23.5°
Reaches altitude 10° 00:42:48 10° 329° (NNW) 2,059 6.9 -23.9°
Enters shadow 00:46:45 66° 334° (NNW) 669 4.1 -24.7°
